Starlink 31546

operational
NORAD ID: 59470 Int'l Des: 2024-068 Owner: SPXS Country: US Constellation: starlink
LEOCIRCULAR

About Starlink 31546

Description loading...

Live Position

Loading 3D Globe...

Upcoming Passes

Altitude History

Altitude vs Time

uPlot chart will show altitude changes over time

Two-Line Element Set

1 59470U 24068R 26033.96380264 .00008916 00000-0 33316-3 0 9990
2 59470 42.9996 227.0144 0001115 278.0858 81.9867 15.27575308103255
Epoch: Feb 2, 2026 • Age: 12 hours

Current Status

Altitude 489.9 km
Velocity 7.62 km/s
Sub-Earth Point -28.67°S, 117.6°W
Launch Date Apr 10, 2024
Age 1.8 years
Type internet

Technical Details

Classification Payload
Mass 730.00 kg
Dry Mass 700.00 kg
Total Mass 730.00 kg
Length 0.30 m
Diameter 4.10 m
Span 29.00 m
Shape Box + pan
Manufacturer SPXS
Bus Type Starlink V2M
Phase Status In Orbit
Owner/State SPXS/US

Large Constellations

Loading constellations...